Location: Recife
(8.0585°S, 34.8848°W)
Time: 11:20:38
(UTC-03:00)

S-56A Canister/Altair - Pass Details

Date: 17 April 2026
Orbit: 633 x 2484 km, 38.9° (Epoch: 20 May)

Event Time Altitude Azimuth Distance (km) Brightness Sun altitude
Rises 11:56:46 0° 323° (NW) 6,010 12.4 69.1°
Reaches altitude 10° 12:01:09 10° 327° (NNW) 4,851 12.1 68.6°
Maximum altitude 12:13:46 51° 39° (NE) 2,178 10.8 66.9°
Drops below altitude 10° 12:22:32 10° 112° (ESE) 3,449 10.8 65.5°
Sets 12:25:06 0° 117° (ESE) 4,199 11.1 65.1°
